Wind_Speed
38 39 39 39 38 39 39 39 40 40 41 40 40 40 39 38 37 37 37 38 39 39 39 38 38 38 37 37 36 36 35 34 34 34 34 34 33 33 34 34 34 34 34
38 38 39 38 39 39 39 39 40 40 41 41 40 39 39 39 38 38 38 38 38 39 39 38 38 38 37 37 37 36 36 35 35 35 35 34 34 33 34 35 35 35 34
36 37 38 38 37 38 39 39 39 40 41 40 40 40 39 39 38 38 38 38 37 38 39 39 38 38 37 37 36 36 36 36 35 35 35 35 35 35 35 35 35 35 35
35 36 37 38 37 36 37 38 39 39 40 40 40 40 40 39 38 38 39 38 38 38 39 38 38 38 37 37 36 36 36 36 36 36 36 35 35 35 34 34 34 34 35
34 35 36 37 36 35 36 36 36 38 38 39 39 39 39 39 38 38 39 39 38 38 38 38 38 38 38 37 36 36 36 37 36 36 35 35 34 34 34 34 34 34 36
33 35 35 35 35 35 35 35 35 37 38 38 38 38 38 39 39 39 39 38 38 38 37 38 39 39 38 37 36 36 36 35 35 35 34 34 34 34 34 35 35 35 35
32 34 35 35 35 35 35 35 35 36 37 38 38 38 38 38 38 38 40 39 38 38 39 39 39 39 38 37 37 37 36 35 35 34 34 34 34 35 35 36 36 36 35
32 33 34 35 35 36 36 36 35 36 37 38 38 38 38 37 37 38 39 40 39 39 39 39 39 39 39 38 37 36 36 36 36 35 35 35 36 36 36 37 37 37 37
32 33 33 34 35 37 37 37 37 36 36 36 37 38 38 38 37 38 39 40 40 40 39 38 38 38 39 39 38 37 37 38 38 37 37 37 37 37 37 38 38 38 38
32 32 33 34 34 36 36 37 37 38 37 37 37 37 38 39 39 39 39 39 40 40 39 38 37 38 38 39 39 38 38 39 39 39 38 38 38 38 39 39 38 39 40
31 31 33 34 35 35 36 36 37 38 38 38 37 37 37 38 39 38 39 39 39 40 39 38 37 37 38 39 40 40 40 41 41 40 40 39 40 40 40 40 40 40 41
30 31 32 33 34 35 37 38 38 38 38 39 39 38 38 38 39 39 39 39 39 40 40 39 38 37 37 39 40 40 41 41 40 40 40 40 41 40 40 40 40 41 41
28 29 30 32 33 34 36 37 37 38 38 39 39 40 40 39 39 40 41 40 40 40 40 40 39 38 37 37 39 40 39 39 39 40 40 40 41 41 41 40 40 40 41
27 28 29 31 32 33 34 35 36 37 38 39 39 40 40 40 40 40 40 40 41 40 40 40 40 39 38 37 38 38 39 39 39 39 40 40 41 42 41 41 41 41 41
26 28 29 30 31 32 34 35 36 37 38 38 38 39 39 40 41 41 41 41 41 41 41 40 41 40 39 39 38 38 38 39 39 39 40 41 41 41 42 42 41 41 41
25 27 28 29 30 32 33 34 35 36 36 36 37 38 38 39 40 42 42 41 41 41 41 41 41 42 41 41 40 39 38 39 40 39 39 40 41 41 41 41 41 41 41
26 26 27 29 30 31 32 33 34 34 35 36 37 38 38 39 40 41 41 41 40 40 41 42 42 43 42 41 41 41 40 39 39 39 39 39 39 40 40 40 40 41 41
27 27 27 28 28 29 30 31 32 33 35 36 36 37 38 39 40 41 41 40 40 40 40 41 42 42 42 42 41 41 40 39 39 40 40 40 40 40 40 40 39 39 39
28 28 27 28 28 29 29 29 30 32 33 34 35 36 37 38 39 39 40 40 39 39 39 40 41 41 41 42 41 40 40 40 40 40 40 40 40 41 41 40 40 39 39
28 28 28 28 28 28 29 29 30 31 32 33 34 35 36 37 37 37 38 39 38 38 38 39 39 40 40 40 40 40 40 40 40 40 40 40 40 40 40 40 40 40 40
29 29 29 28 28 28 29 29 30 31 31 33 34 35 35 35 36 36 37 37 37 37 37 37 38 38 39 39 39 40 40 39 39 39 39 39 39 39 40 40 40 40 39
29 29 29 29 29 29 29 30 30 30 30 30 31 32 33 34 34 34 34 35 35 35 36 36 37 37 38 38 38 38 39 39 39 38 38 39 39 40 40 41 40 40 40
28 28 29 29 29 29 29 29 29 29 29 30 30 30 31 31 32 32 33 34 34 35 35 36 37 37 38 39 39 39 39 39 39 39 39 39 40 40 41 40 39 39 38
29 29 29 29 29 29 29 29 29 29 29 29 30 30 30 30 31 32 33 34 34 34 35 35 35 36 38 39 39 38 38 38 39 39 39 39 39 39 39 39 38 38 37
28 28 28 28 28 28 29 29 29 29 29 29 29 29 29 30 31 32 32 33 33 34 34 34 34 35 36 36 37 37 37 37 37 37 37 37 37 37 36 37 36 35 35
27 27 27 27 27 28 29 29 29 29 29 29 29 29 30 30 30 30 31 31 31 32 32 33 33 34 34 34 35 35 36 36 37 36 36 35 35 35 34 34 34 34 34
Wind_Direction
249 249 248 247 247 248 248 248 247 247 248 248 248 247 248 248 248 250 250 249 249 249 248 249 251 252 255 258 260 262 264 264 265 265 265 265 266 266 268 270 271 271 271
249 249 247 247 248 249 249 249 248 248 248 248 247 247 247 248 247 249 249 250 250 249 248 249 250 252 255 258 260 262 263 264 265 265 266 265 265 267 269 272 273 272 271
248 248 246 246 249 250 250 249 249 247 247 247 246 246 246 247 248 248 249 249 249 250 249 249 250 252 255 257 260 262 263 264 265 266 267 266 266 267 268 270 272 272 271
249 245 243 245 249 252 252 250 249 247 246 247 247 247 246 246 247 249 249 251 249 250 250 249 250 252 254 255 258 261 263 264 266 267 267 267 269 269 269 269 270 270 270
248 245 244 245 249 250 252 250 247 245 245 245 245 246 247 247 248 249 250 250 251 253 252 250 251 253 254 256 258 260 263 265 266 267 266 266 267 269 269 270 271 271 272
248 247 246 248 250 249 250 247 248 247 246 247 246 246 247 248 248 249 249 250 253 254 253 253 253 253 254 256 257 259 261 262 263 264 265 265 266 267 269 271 272 272 273
250 247 248 250 249 249 247 246 248 247 247 248 247 248 247 249 250 251 250 251 253 253 255 254 254 253 254 255 256 258 257 258 262 264 263 265 267 268 270 272 273 273 273
253 250 249 249 249 248 246 247 247 247 248 247 247 248 248 249 251 252 253 252 252 254 255 254 253 253 254 254 254 255 257 258 261 263 263 264 266 269 271 272 272 273 273
256 253 250 249 249 248 247 247 246 247 247 247 247 248 248 249 252 254 255 253 252 254 254 254 254 254 254 254 254 255 257 258 260 262 263 264 266 268 270 271 272 273 273
255 254 251 250 250 249 248 248 248 248 248 248 249 249 249 251 253 254 255 254 253 253 253 253 254 254 253 254 254 255 258 259 261 261 262 263 264 267 268 269 271 273 274
257 256 253 251 251 251 250 250 250 249 249 250 250 252 251 252 253 253 254 255 255 254 253 253 253 254 253 254 256 257 259 260 260 261 261 263 265 267 268 269 271 273 275
257 256 255 253 253 252 252 251 251 249 250 250 251 252 253 253 254 253 253 254 254 254 254 253 253 253 254 256 257 258 259 259 260 260 262 264 265 267 268 269 271 273 275
258 254 253 253 254 254 253 252 252 251 250 252 253 253 254 254 254 253 253 253 253 254 254 253 253 253 255 257 258 257 258 258 260 261 263 264 265 266 268 271 273 274 275
260 255 254 254 255 255 254 253 253 253 252 253 254 255 255 255 254 253 253 253 253 254 254 253 253 253 255 258 259 258 259 259 261 263 264 265 266 267 268 271 273 274 276
263 259 257 256 258 258 257 256 255 254 254 254 255 256 255 255 254 253 252 252 253 253 253 253 253 253 255 258 260 260 261 260 261 264 266 266 267 268 269 271 273 275 276
267 263 259 258 259 260 258 257 256 255 254 255 255 256 255 255 254 253 253 253 253 253 252 253 253 254 255 257 259 260 261 262 262 263 265 266 268 269 270 271 273 274 274
268 265 262 261 260 260 258 257 256 255 254 254 255 256 256 255 254 253 254 255 255 254 253 253 253 255 256 257 258 260 261 261 261 263 265 266 267 269 270 272 273 274 275
271 268 265 262 260 259 258 258 257 256 255 255 255 256 257 256 255 254 254 254 254 254 254 253 254 255 255 256 258 260 261 261 262 264 265 265 266 267 269 271 272 273 274
272 269 266 264 261 260 258 258 259 258 258 257 257 258 258 258 257 255 254 253 252 252 251 252 254 254 255 255 257 259 259 261 262 263 265 266 266 267 268 270 272 272 273
272 270 269 267 264 262 260 260 260 259 259 258 259 259 259 259 258 255 253 252 251 250 250 251 253 254 254 256 257 259 261 262 263 264 265 265 266 267 267 269 271 272 272
270 270 270 269 266 263 262 262 261 260 260 260 259 259 258 258 258 256 254 252 251 251 251 252 252 253 254 256 259 260 261 263 265 266 266 266 267 267 269 271 272 272 272
269 269 270 269 266 264 264 263 261 261 261 260 258 258 258 258 256 254 252 251 250 252 253 253 252 253 255 257 259 260 262 264 266 266 267 268 268 269 270 272 273 272 270
269 270 270 269 267 265 264 262 260 261 262 260 258 258 258 256 254 252 251 250 252 252 253 253 253 253 255 256 258 260 263 264 265 266 267 268 269 270 271 272 272 271 270
269 268 268 268 267 265 262 261 261 260 260 260 259 259 259 258 255 253 252 252 252 253 254 253 253 255 255 256 257 260 262 264 265 266 267 268 270 271 271 272 272 270 269
270 268 267 267 266 264 261 260 260 261 260 260 260 260 259 258 256 253 253 254 254 255 254 254 254 255 256 256 257 259 261 263 265 267 268 269 270 271 271 270 269 268 267
270 268 267 267 266 264 262 261 262 262 261 262 262 261 261 259 256 253 252 253 255 255 254 254 255 255 256 256 258 259 260 262 264 266 267 268 269 269 268 268 268 267 266
Height
5697 5699 5702 5705 5708 5710 5713 5716 5719 5722 5724 5726 5728 5730 5733 5734 5736 5738 5739 5742 5744 5746 5748 5750 5752 5754 5756 5757 5759 5759 5760 5760 5760 5760 5761 5761 5761 5761 5761 5760 5760 5760 5760
5688 5690 5692 5695 5698 5701 5703 5706 5709 5711 5714 5716 5719 5721 5723 5725 5727 5728 5730 5732 5734 5736 5739 5741 5743 5745 5747 5748 5750 5751 5752 5752 5752 5752 5753 5753 5754 5753 5753 5752 5752 5752 5752
5678 5680 5683 5686 5688 5691 5694 5696 5699 5701 5703 5706 5708 5711 5713 5715 5717 5719 5721 5723 5725 5727 5729 5731 5734 5736 5738 5739 5741 5742 5743 5743 5744 5744 5744 5744 5745 5745 5746 5745 5745 5744 5744
5668 5670 5674 5677 5679 5681 5684 5686 5689 5691 5694 5696 5699 5702 5704 5707 5708 5710 5712 5714 5715 5717 5720 5722 5724 5726 5728 5730 5732 5733 5734 5734 5735 5735 5735 5736 5736 5736 5737 5738 5737 5736 5736
5659 5661 5664 5667 5670 5672 5674 5676 5679 5682 5684 5686 5689 5692 5694 5697 5699 5701 5703 5704 5706 5708 5710 5712 5715 5717 5719 5721 5723 5724 5725 5725 5726 5726 5726 5727 5727 5727 5728 5729 5729 5729 5728
5651 5653 5655 5658 5660 5663 5665 5667 5669 5672 5675 5677 5679 5682 5685 5687 5690 5691 5693 5695 5697 5699 5701 5703 5705 5707 5709 5711 5713 5714 5715 5716 5717 5717 5718 5718 5719 5719 5719 5720 5720 5720 5720
5643 5645 5647 5649 5651 5653 5656 5658 5660 5662 5665 5667 5670 5673 5676 5678 5680 5682 5684 5686 5688 5690 5692 5693 5695 5697 5699 5701 5703 5704 5706 5707 5708 5709 5709 5710 5711 5711 5711 5711 5711 5711 5711
5634 5636 5638 5640 5642 5644 5646 5648 5650 5653 5655 5658 5661 5663 5666 5668 5670 5673 5675 5677 5679 5681 5682 5684 5686 5688 5689 5691 5693 5695 5696 5697 5699 5700 5700 5701 5702 5702 5702 5702 5702 5701 5702
5625 5627 5629 5631 5633 5635 5637 5639 5641 5644 5646 5649 5651 5653 5656 5658 5661 5663 5665 5667 5669 5671 5672 5674 5676 5677 5680 5681 5683 5685 5686 5688 5689 5690 5691 5692 5693 5693 5693 5692 5692 5692 5691
5616 5618 5620 5622 5624 5626 5628 5630 5632 5634 5636 5639 5641 5644 5646 5648 5650 5652 5655 5657 5659 5661 5663 5664 5666 5667 5670 5672 5673 5675 5677 5678 5679 5680 5681 5682 5683 5683 5683 5682 5682 5681 5681
5607 5609 5610 5612 5614 5616 5618 5620 5623 5624 5627 5629 5631 5634 5636 5638 5640 5642 5644 5646 5648 5650 5652 5654 5656 5658 5660 5661 5663 5665 5667 5668 5669 5670 5671 5672 5673 5673 5673 5672 5672 5671 5670
5599 5600 5601 5603 5605 5607 5609 5611 5613 5615 5617 5619 5621 5623 5625 5627 5630 5632 5634 5635 5638 5640 5642 5644 5646 5647 5649 5651 5653 5655 5656 5658 5659 5660 5661 5662 5662 5662 5662 5662 5661 5660 5659
5591 5592 5593 5595 5596 5598 5599 5601 5603 5605 5607 5609 5611 5613 5615 5617 5619 5621 5623 5625 5627 5629 5631 5633 5636 5637 5639 5641 5643 5644 5646 5647 5648 5649 5650 5651 5651 5651 5651 5650 5650 5649 5648
5583 5584 5585 5587 5588 5589 5590 5592 5593 5595 5597 5599 5601 5603 5605 5606 5608 5610 5612 5614 5616 5618 5620 5623 5625 5627 5629 5630 5632 5633 5635 5636 5637 5638 5638 5639 5640 5640 5640 5639 5639 5638 5637
5576 5577 5577 5578 5579 5580 5582 5582 5584 5585 5587 5588 5590 5592 5594 5596 5597 5599 5601 5604 5605 5607 5609 5612 5614 5616 5618 5620 5621 5623 5624 5625 5626 5627 5627 5628 5628 5628 5628 5628 5628 5627 5625
5568 5569 5569 5570 5571 5571 5572 5573 5574 5575 5576 5578 5580 5582 5583 5585 5587 5589 5591 5593 5595 5597 5599 5601 5603 5605 5607 5609 5611 5612 5613 5614 5615 5616 5616 5617 5617 5617 5617 5617 5616 5615 5614
5560 5560 5561 5562 5562 5563 5563 5564 5565 5566 5567 5569 5570 5571 5573 5575 5576 5578 5580 5582 5584 5586 5588 5590 5592 5594 5596 5598 5600 5601 5602 5603 5604 5605 5605 5606 5606 5606 5606 5605 5604 5604 5602
5552 5552 5552 5553 5553 5554 5555 5555 5556 5557 5558 5559 5560 5561 5562 5564 5565 5567 5569 5571 5573 5575 5577 5579 5581 5583 5585 5587 5589 5590 5591 5592 5593 5593 5594 5595 5595 5594 5594 5594 5593 5592 5592
5544 5544 5544 5544 5545 5545 5545 5546 5547 5547 5548 5549 5550 5551 5552 5553 5554 5556 5558 5560 5562 5564 5566 5568 5570 5572 5574 5576 5577 5579 5580 5581 5582 5582 5583 5583 5583 5584 5583 5583 5582 5582 5581
5536 5535 5535 5535 5536 5536 5537 5537 5538 5538 5539 5539 5540 5541 5541 5542 5543 5545 5546 5549 5551 5553 5555 5557 5559 5561 5563 5565 5566 5568 5569 5571 5571 5571 5572 5572 5572 5572 5571 5571 5571 5570 5570
5527 5527 5527 5527 5527 5527 5527 5528 5528 5529 5529 5529 5530 5531 5531 5532 5533 5534 5536 5538 5540 5543 5545 5547 5549 5551 5553 5554 5555 5557 5558 5559 5560 5560 5560 5561 5560 5560 5560 5560 5559 5559 5558
5518 5518 5518 5518 5518 5518 5518 5519 5519 5519 5520 5520 5520 5521 5521 5522 5523 5524 5526 5528 5530 5532 5534 5536 5538 5540 5542 5543 5545 5546 5547 5547 5548 5549 5549 5549 5549 5549 5549 5548 5548 5547 5546
5509 5509 5509 5509 5509 5509 5509 5509 5510 5510 5510 5511 5511 5512 5512 5513 5514 5515 5517 5519 5520 5522 5524 5525 5527 5529 5531 5532 5534 5535 5535 5536 5537 5537 5538 5538 5538 5537 5537 5536 5536 5535 5535
5500 5500 5500 5500 5500 5500 5500 5500 5500 5501 5502 5502 5503 5503 5503 5504 5505 5506 5507 5509 5510 5512 5513 5515 5517 5518 5520 5522 5523 5524 5525 5525 5526 5526 5526 5526 5526 5526 5525 5525 5525 5524 5524
5492 5491 5491 5491 5491 5491 5491 5491 5492 5492 5493 5493 5494 5494 5494 5495 5495 5497 5498 5499 5501 5502 5503 5505 5506 5508 5510 5511 5512 5513 5514 5515 5515 5515 5516 5515 5515 5515 5515 5514 5514 5514 5514
5483 5483 5483 5482 5482 5482 5482 5483 5483 5483 5484 5485 5485 5485 5485 5486 5486 5487 5489 5490 5491 5492 5493 5495 5496 5497 5499 5500 5501 5502 5503 5503 5504 5504 5505 5505 5505 5505 5505 5504 5504 5504 5504